Wind_Speed
1 2 3 4 4 5 7 9 10 10 11 12 12 12 12 13 14 14 15 16 16 17 18 19 20 20 21 22 22 23 21 20 18 19 20 22 22 22 23 23 24 24 25 26
2 2 3 4 5 6 7 8 10 11 12 13 13 13 13 14 15 15 16 17 17 18 18 19 20 21 21 22 24 23 21 20 20 21 21 22 23 23 24 24 25 25 26 27
2 3 4 5 6 7 7 9 10 11 12 13 14 14 14 14 16 17 18 18 18 19 20 21 22 23 23 23 23 22 20 21 22 23 23 23 24 23 24 25 25 25 25 26
4 4 5 5 6 7 6 7 8 9 11 12 13 14 14 15 16 18 19 20 20 20 21 22 23 23 24 24 23 21 21 22 22 22 23 23 24 24 24 24 25 26 26 26
6 6 6 7 7 7 7 7 8 9 10 12 13 14 14 15 17 18 19 20 21 21 21 22 23 23 23 23 22 22 23 24 23 23 23 23 24 23 24 24 25 26 26 26
8 9 9 9 9 9 9 10 10 11 12 13 13 15 15 16 17 18 19 20 21 21 21 22 22 22 22 23 23 24 24 24 23 23 23 23 24 24 24 25 25 25 25 25
9 10 10 10 11 11 11 12 12 13 14 14 15 16 16 17 18 18 19 20 21 21 21 22 21 22 22 23 24 24 24 24 23 24 24 24 24 24 25 25 25 25 25 24
9 10 11 11 12 12 13 13 14 15 16 16 16 17 18 19 19 19 19 21 21 21 21 21 21 22 22 23 24 24 24 25 24 24 24 24 25 25 25 25 25 25 24 23
11 11 12 12 13 14 15 16 16 17 17 17 17 17 17 18 18 18 19 21 22 22 22 21 21 21 22 23 23 23 23 25 25 25 24 25 25 24 24 24 24 24 23 23
12 12 12 13 14 15 15 16 16 17 18 18 17 17 17 18 18 18 19 20 21 21 21 21 21 22 23 23 23 23 23 22 23 23 24 24 24 24 23 23 24 23 22 22
13 13 12 14 15 15 16 17 17 18 18 18 18 17 18 19 20 19 19 20 21 21 21 21 22 23 22 22 23 23 22 22 22 22 21 22 23 23 23 23 23 22 21 21
13 14 14 15 15 15 16 17 17 18 18 17 17 17 17 18 19 19 20 21 20 20 21 22 23 22 22 22 22 23 23 22 22 21 21 22 22 22 23 23 23 22 22 22
14 15 16 16 16 16 16 17 17 18 18 17 17 17 18 19 20 20 21 21 21 21 21 22 22 22 22 22 22 23 22 22 22 22 22 22 23 22 22 22 22 22 22 22
16 16 17 17 17 18 17 17 18 18 18 18 18 18 18 19 19 20 20 21 20 20 21 21 20 21 22 22 22 22 22 22 22 22 22 22 22 22 22 22 22 21 21 21
17 17 17 18 18 19 18 17 17 18 18 18 18 18 18 19 19 20 20 21 21 21 21 21 21 21 21 21 22 22 22 22 22 22 22 22 22 21 21 21 21 21 21 20
18 18 18 18 18 18 18 18 18 19 18 18 19 19 19 20 20 20 21 21 21 21 22 20 20 21 22 22 22 21 21 21 22 22 21 21 21 21 21 21 21 21 20 19
18 19 19 19 18 18 18 19 19 20 19 19 20 20 20 20 21 21 22 22 23 22 22 21 21 21 21 21 21 21 21 21 21 21 21 21 21 21 21 20 20 20 20 19
19 19 20 20 20 20 20 20 20 20 20 20 20 21 21 22 22 23 23 24 23 22 22 21 22 22 21 21 21 21 21 20 20 21 20 20 20 20 20 20 20 20 19 19
20 21 22 22 22 22 21 21 21 21 21 21 21 21 23 23 23 23 23 23 22 22 22 22 22 21 21 22 21 21 20 19 20 20 20 19 20 20 20 21 20 20 19 19
20 22 23 23 24 24 23 22 22 22 22 22 23 23 23 23 23 23 23 23 23 23 23 23 22 22 22 22 21 20 19 19 20 19 19 19 19 20 20 20 20 19 19 19
22 23 23 24 24 24 24 24 23 23 24 24 24 24 24 24 24 24 23 23 24 24 24 23 22 22 22 21 21 20 19 18 19 18 18 18 19 19 20 20 19 19 18 17
23 24 24 25 25 25 25 24 24 24 24 24 25 24 24 24 24 24 23 23 24 24 23 22 21 22 21 20 19 18 17 16 16 16 17 18 19 19 19 18 18 18 17 15
24 24 25 25 25 25 24 24 24 24 24 24 24 24 23 24 24 24 24 24 24 23 22 22 21 21 20 19 19 17 16 15 15 16 17 17 17 18 17 17 16 16 15 14
23 24 25 25 25 25 25 24 24 24 24 24 25 24 24 25 25 24 23 23 22 22 22 22 22 21 20 19 18 17 16 16 16 17 17 15 16 16 16 16 15 14 13 13
24 24 25 25 25 25 25 24 24 24 24 24 24 24 25 25 24 24 23 22 21 21 21 22 21 20 19 18 17 16 16 16 16 15 14 14 14 14 14 13 13 12 12 13
24 25 25 26 26 26 25 25 24 24 23 23 23 23 23 24 24 23 22 21 20 19 20 20 19 18 18 17 16 16 15 15 14 14 13 13 13 13 12 12 12 12 13 13
Wind_Direction
277 276 262 253 256 251 247 249 249 253 256 258 260 262 267 271 273 275 279 283 286 285 285 287 289 290 292 291 292 291 291 290 289 290 291 293 294 295 298 299 297 296 297 298
308 287 263 262 269 263 259 257 259 260 263 265 264 267 271 274 276 281 286 287 286 286 286 287 289 290 294 294 293 292 291 292 292 292 293 294 293 293 295 297 297 297 298 298
319 293 276 274 276 277 271 268 269 272 271 269 267 270 275 279 283 286 289 290 290 290 289 287 289 291 292 293 293 293 294 297 297 293 292 293 294 292 293 296 297 298 299 299
332 319 306 294 288 288 286 284 283 283 280 277 274 274 279 285 288 288 289 290 291 290 290 291 292 291 291 292 295 295 297 298 296 294 294 296 296 292 296 297 298 299 299 299
335 323 312 303 298 295 294 292 292 291 288 285 283 282 285 289 292 292 293 293 293 292 293 295 295 294 292 293 296 295 296 296 296 297 295 294 295 295 299 298 298 298 299 299
330 326 318 315 313 311 304 303 304 302 296 292 291 290 293 295 296 295 297 298 298 297 295 296 296 296 296 295 295 294 295 295 296 296 294 294 296 298 300 299 299 298 299 300
322 319 319 319 317 318 313 307 305 303 301 298 297 298 304 300 300 300 298 299 299 299 297 297 297 298 297 297 297 294 294 295 295 295 293 294 296 299 300 300 299 298 299 299
329 324 318 318 318 318 314 312 309 307 308 302 301 301 304 302 301 300 298 300 300 300 298 298 299 298 297 298 297 296 294 294 292 293 292 294 296 299 302 302 300 298 299 300
329 329 326 322 323 319 314 311 307 304 304 301 302 303 302 302 303 301 298 301 302 300 298 298 299 297 298 299 298 298 300 295 291 291 293 298 300 302 304 304 303 301 300 302
325 323 326 323 322 320 315 313 309 305 306 303 303 304 305 303 303 303 300 303 303 301 299 298 299 297 300 301 302 302 305 306 299 296 297 299 302 305 306 306 306 304 301 301
320 321 320 317 315 318 316 315 312 308 307 306 306 307 307 303 303 305 304 303 302 301 300 302 302 299 299 302 303 307 306 307 307 305 303 302 304 305 306 307 306 306 304 304
320 320 318 317 318 320 318 315 312 309 308 306 308 308 307 303 302 304 306 306 304 305 303 302 303 300 300 304 307 308 306 306 306 304 305 305 305 306 306 306 305 305 305 307
319 320 320 317 318 318 317 316 314 313 311 308 307 309 307 305 302 303 305 308 307 307 306 304 302 301 301 304 306 306 305 305 305 305 304 305 306 307 307 306 306 307 307 307
318 317 317 317 317 318 318 316 316 314 313 311 309 307 306 306 306 305 306 308 307 308 307 305 306 304 302 302 304 305 304 304 305 306 305 305 305 306 307 308 308 307 307 307
315 315 315 315 315 315 314 313 313 312 311 309 309 306 307 307 308 308 308 308 307 307 306 303 304 304 304 304 304 305 305 305 305 306 306 305 306 306 308 310 311 311 310 310
312 314 314 314 314 314 313 312 310 310 308 307 307 306 307 305 306 307 308 309 309 308 307 305 304 303 304 305 305 307 307 306 307 307 307 306 305 306 306 308 309 309 310 312
316 315 314 312 313 313 314 313 311 309 308 306 305 305 304 304 306 307 306 307 309 309 309 307 306 305 306 307 309 309 307 306 307 308 308 307 305 303 304 305 307 307 306 308
316 316 314 312 311 311 313 311 308 307 307 306 305 303 303 303 305 307 306 307 309 310 309 309 309 309 309 311 311 309 308 307 307 309 309 308 307 306 306 307 306 305 305 306
315 314 314 314 313 313 313 310 308 306 305 304 303 303 302 303 304 305 306 307 309 310 310 309 310 310 310 310 311 310 309 308 310 311 310 310 309 308 309 311 310 306 306 308
311 313 312 313 312 313 313 311 309 307 305 304 305 304 304 304 304 305 306 307 308 308 308 309 309 309 310 311 311 310 308 309 310 311 310 312 313 312 313 314 314 311 310 309
309 310 311 312 311 310 310 310 309 308 307 306 306 306 306 305 306 305 305 306 307 308 306 306 307 307 309 310 310 311 312 311 310 311 313 316 317 316 315 315 315 314 315 315
310 310 309 309 310 310 308 307 308 307 306 305 306 306 305 305 304 303 303 305 304 305 305 305 306 307 308 308 309 309 312 311 312 314 316 319 320 320 318 316 316 317 319 321
307 309 308 308 309 309 308 306 306 306 307 307 307 307 307 305 303 302 302 303 304 304 304 304 305 306 306 308 307 305 306 307 310 313 316 319 322 323 321 320 319 321 323 326
306 308 308 307 308 307 306 306 306 307 308 308 307 307 307 304 302 303 304 306 304 303 303 303 304 304 304 306 306 306 306 306 308 312 316 319 322 324 324 324 322 326 329 330
306 307 306 305 305 304 305 306 307 308 308 308 308 307 307 305 303 304 307 307 305 303 303 303 304 305 306 308 308 309 309 309 312 314 316 318 321 322 325 328 328 331 333 333
305 306 305 304 303 304 306 306 305 306 306 307 310 309 306 306 306 306 307 307 308 307 306 306 309 311 312 311 310 309 308 307 310 312 316 318 320 322 327 333 334 337 338 337
Height
5842 5843 5842 5842 5842 5843 5842 5842 5842 5842 5842 5842 5842 5843 5843 5843 5843 5842 5842 5841 5840 5839 5838 5837 5836 5834 5833 5831 5829 5827 5826 5825 5824 5822 5821 5819 5817 5815 5813 5811 5808 5806 5804 5801
5844 5843 5843 5842 5842 5842 5841 5841 5840 5840 5840 5840 5840 5840 5840 5840 5840 5839 5838 5837 5836 5835 5834 5832 5831 5830 5828 5826 5824 5822 5820 5818 5818 5817 5815 5813 5811 5809 5807 5805 5802 5800 5797 5795
5844 5844 5842 5842 5841 5841 5840 5839 5839 5838 5838 5838 5838 5838 5838 5837 5837 5836 5834 5833 5832 5830 5829 5827 5826 5824 5822 5821 5819 5816 5815 5813 5812 5811 5809 5807 5805 5803 5801 5799 5797 5794 5791 5788
5844 5843 5842 5841 5840 5839 5839 5838 5837 5836 5836 5835 5836 5835 5835 5834 5834 5832 5831 5829 5828 5826 5824 5823 5821 5819 5817 5816 5814 5812 5810 5809 5807 5805 5804 5802 5800 5798 5796 5793 5791 5788 5785 5782
5844 5843 5842 5841 5840 5838 5837 5836 5836 5835 5834 5833 5833 5833 5833 5831 5830 5829 5827 5825 5823 5822 5820 5818 5816 5814 5812 5810 5809 5807 5806 5804 5802 5800 5798 5796 5794 5792 5790 5788 5785 5782 5779 5776
5844 5842 5841 5839 5838 5836 5835 5835 5834 5833 5832 5831 5831 5830 5829 5828 5826 5825 5823 5821 5818 5817 5815 5813 5811 5809 5807 5806 5804 5802 5800 5798 5796 5795 5793 5791 5789 5787 5785 5782 5778 5775 5772 5770
5842 5841 5839 5838 5836 5835 5834 5833 5832 5830 5829 5828 5827 5826 5826 5824 5822 5820 5818 5816 5814 5812 5810 5808 5806 5804 5803 5801 5799 5796 5794 5793 5791 5789 5787 5785 5783 5781 5778 5775 5772 5769 5767 5764
5840 5839 5838 5836 5835 5833 5831 5831 5830 5827 5826 5825 5824 5822 5822 5820 5818 5816 5814 5812 5809 5807 5805 5803 5802 5799 5798 5796 5793 5791 5789 5787 5785 5783 5781 5779 5777 5774 5771 5769 5766 5763 5760 5757
5839 5838 5836 5834 5832 5831 5829 5827 5826 5825 5823 5821 5820 5819 5818 5816 5814 5812 5810 5808 5805 5803 5800 5799 5797 5795 5793 5791 5788 5786 5782 5780 5778 5776 5774 5773 5770 5768 5765 5762 5759 5757 5754 5751
5837 5836 5834 5832 5830 5828 5827 5825 5823 5821 5819 5817 5817 5815 5814 5812 5810 5808 5806 5804 5801 5798 5796 5794 5792 5790 5788 5786 5783 5781 5778 5774 5772 5771 5769 5767 5765 5762 5759 5756 5753 5750 5748 5745
5836 5834 5833 5831 5828 5826 5824 5823 5820 5818 5816 5814 5812 5814 5810 5808 5805 5804 5801 5799 5797 5794 5792 5789 5787 5785 5783 5781 5779 5776 5773 5770 5768 5766 5764 5762 5759 5756 5753 5750 5748 5745 5742 5739
5834 5832 5830 5829 5826 5824 5822 5819 5818 5816 5814 5811 5809 5811 5806 5804 5802 5800 5797 5795 5793 5790 5787 5785 5783 5780 5779 5776 5774 5771 5769 5766 5764 5761 5759 5756 5754 5751 5748 5745 5742 5740 5737 5734
5832 5830 5828 5826 5826 5823 5819 5817 5814 5813 5811 5808 5806 5808 5802 5800 5798 5796 5794 5791 5788 5786 5783 5781 5778 5776 5773 5771 5769 5767 5764 5762 5759 5757 5754 5751 5749 5746 5743 5740 5737 5734 5731 5728
5830 5828 5827 5824 5821 5819 5816 5814 5811 5809 5807 5805 5803 5801 5799 5796 5794 5792 5790 5787 5784 5782 5779 5776 5774 5771 5769 5766 5764 5762 5759 5757 5754 5752 5749 5746 5744 5741 5738 5735 5732 5729 5726 5723
5827 5825 5823 5820 5818 5815 5813 5811 5809 5806 5804 5801 5800 5797 5795 5793 5790 5788 5786 5783 5780 5777 5774 5772 5769 5766 5764 5761 5759 5757 5754 5751 5749 5746 5744 5741 5739 5736 5733 5730 5727 5724 5721 5717
5824 5822 5820 5818 5815 5812 5810 5808 5805 5803 5800 5798 5796 5794 5791 5789 5787 5784 5782 5779 5776 5773 5770 5766 5764 5761 5759 5756 5754 5751 5749 5746 5744 5741 5738 5736 5733 5731 5728 5725 5722 5719 5716 5713
5821 5819 5817 5815 5812 5809 5807 5805 5801 5799 5796 5794 5792 5791 5787 5785 5783 5780 5778 5775 5771 5768 5765 5762 5759 5757 5754 5751 5748 5746 5744 5741 5738 5736 5733 5731 5729 5726 5723 5720 5718 5715 5712 5709
5818 5816 5813 5810 5809 5806 5805 5800 5797 5795 5793 5790 5787 5785 5783 5780 5778 5775 5772 5769 5766 5763 5760 5757 5754 5751 5749 5746 5744 5741 5738 5736 5733 5731 5729 5726 5724 5721 5718 5715 5713 5710 5707 5704
5814 5812 5809 5806 5803 5801 5799 5796 5793 5791 5789 5786 5783 5781 5778 5776 5773 5771 5767 5764 5761 5758 5755 5752 5750 5747 5744 5741 5739 5736 5733 5731 5729 5726 5724 5721 5719 5716 5713 5710 5708 5704 5702 5699
5811 5808 5805 5801 5798 5796 5795 5791 5788 5787 5784 5781 5778 5776 5773 5770 5768 5766 5762 5759 5756 5753 5750 5747 5745 5741 5739 5736 5733 5731 5728 5726 5724 5722 5719 5717 5714 5711 5708 5705 5703 5700 5697 5694
5806 5803 5800 5797 5794 5791 5789 5786 5784 5782 5780 5776 5773 5770 5768 5765 5762 5760 5757 5753 5750 5748 5745 5742 5739 5736 5734 5731 5728 5726 5724 5722 5720 5717 5715 5712 5709 5706 5704 5701 5698 5695 5692 5690
5801 5798 5795 5792 5789 5789 5784 5781 5779 5776 5773 5770 5767 5765 5762 5759 5757 5754 5751 5748 5745 5742 5740 5737 5734 5731 5728 5726 5724 5722 5720 5718 5715 5713 5711 5708 5705 5702 5700 5697 5694 5691 5689 5686
5796 5794 5790 5788 5787 5782 5778 5775 5773 5770 5767 5765 5762 5759 5757 5754 5752 5749 5746 5742 5739 5737 5734 5731 5728 5726 5723 5721 5719 5717 5716 5714 5711 5709 5707 5704 5702 5699 5696 5693 5691 5688 5686 5684
5791 5788 5785 5782 5780 5777 5773 5771 5768 5765 5762 5759 5757 5754 5751 5749 5746 5743 5740 5737 5734 5731 5729 5726 5723 5721 5719 5717 5715 5713 5711 5709 5707 5705 5703 5701 5698 5696 5693 5691 5688 5686 5684 5681
5786 5783 5779 5777 5775 5772 5769 5766 5763 5760 5757 5754 5752 5749 5746 5743 5740 5738 5735 5732 5729 5726 5724 5721 5718 5716 5715 5713 5711 5709 5707 5705 5703 5701 5699 5697 5695 5693 5690 5688 5686 5684 5681 5679
5781 5777 5774 5772 5769 5766 5764 5761 5758 5755 5753 5750 5747 5744 5741 5738 5735 5733 5730 5727 5724 5722 5719 5717 5714 5712 5711 5709 5707 5705 5703 5701 5700 5698 5696 5694 5692 5690 5688 5686 5684 5682 5680 5677